SCP
0 0 0 0 0 0 0 0 0 0 0 0 0 0 0 0 0 0 0 0 0 0 0 0 0 0 0 0 0 0 0 0 0 0 0 0 0 0 0 0 0 0 0
0 0 0 0 0 0 0 0 0 0 0 0 0 0 0 0 0 0 0 0 0 0 0 0 0 0 0 0 0 0 0 0 0 0 0 0 0 0 0 0 0 0 0
0 0 0 0 0 0 0 0 0 0 0 0 0 0 0 0 0 0 0 0 0 0 0 0 0 0 0 0 0 0 0 0 0 0 0 0 0 0 0 0 0 0 0
0 0 0 0 0 0 0 0 0 0 0 0 0 0 0 0 0 0 0 0 0 0 0 0 0 0 0 0 0 0 0 0 0 0 0 0 0 0 0 0 0 0 0
0 0 0 0 0 0 0 0 0 0 0 0 0 0 0 0 0 0 0 0 0 0 0 0 0 0 0 0 0 0 0 0 0 0 0 0 0 0 0 0 0 0 0
0 0 0 0 0 0 0 0 0 0 0 0 0 0 0 0 0 0 0 0 0 0 0 0 0 0 0 0 0 0 0 0 0 0 0 0 0 0 0 0 0 0 0
0 0 0 1 1 0 0 0 0 0 0 0 0 0 0 0 0 0 0 0 0 0 0 0 0 0 0 0 0 0 0 0 0 0 0 0 0 0 0 0 0 0 0
0 0 1 1 1 0 0 0 0 0 0 0 0 0 0 0 0 0 0 0 0 0 0 0 0 0 0 0 0 0 0 0 0 0 0 0 0 0 0 0 0 0 0
0 1 1 1 1 0 0 0 0 0 0 0 0 0 0 0 0 0 0 0 0 0 0 0 0 0 0 0 0 0 0 0 0 0 0 0 0 0 0 0 0 0 0
0 0 1 1 0 0 0 0 0 0 0 0 0 0 0 0 0 0 0 0 0 0 0 0 0 0 0 0 0 0 0 0 0 0 0 0 0 0 0 0 0 0 0
0 0 0 0 0 0 0 0 0 0 0 0 0 0 0 0 0 0 0 0 0 0 0 0 0 0 0 0 0 0 0 0 0 0 0 0 0 0 0 0 0 0 0
0 0 0 0 0 0 0 0 0 0 0 0 0 0 0 0 0 0 0 0 0 0 0 0 0 0 0 0 0 0 0 0 0 0 0 0 0 0 0 0 0 0 0
0 0 0 0 0 0 0 0 0 0 0 0 0 0 0 0 0 0 0 0 0 0 0 0 0 0 0 0 0 0 0 0 0 0 0 0 0 0 0 0 0 0 0
0 0 0 0 0 0 0 0 0 0 0 0 0 0 0 0 0 0 0 0 0 0 0 0 0 0 0 0 0 0 0 0 0 0 0 0 0 0 0 0 0 0 0
0 0 0 0 0 0 0 0 0 0 0 0 0 0 0 0 0 0 0 0 0 0 0 0 0 0 0 0 0 0 0 0 0 0 0 0 0 0 0 0 0 0 0
0 0 0 0 0 0 0 0 0 0 0 0 0 0 0 0 0 0 0 0 0 0 0 0 0 0 0 0 0 0 0 0 0 0 0 0 0 0 0 0 0 0 0
0 0 0 0 0 0 0 0 0 0 0 0 0 0 0 0 0 0 0 0 0 0 0 0 0 0 0 0 0 0 0 0 0 0 0 0 0 0 0 0 0 0 0
0 0 0 0 0 0 0 0 0 0 0 0 0 0 0 0 0 0 0 0 0 0 0 0 0 0 0 0 0 0 0 0 0 0 0 0 0 0 0 0 0 0 0
0 0 0 0 0 0 0 0 0 0 0 0 0 0 0 0 0 0 0 0 0 0 0 0 0 0 0 0 0 0 0 0 0 0 0 0 0 0 0 0 0 0 0
0 0 0 0 0 0 0 0 0 0 0 0 0 0 0 0 0 0 0 0 0 0 0 0 0 0 0 0 0 0 0 0 0 0 0 0 0 0 0 0 0 0 0
0 0 0 0 0 0 0 0 0 0 0 0 0 0 0 0 0 0 0 0 0 0 0 0 0 0 0 0 0 0 0 0 0 0 0 0 0 0 0 0 0 0 0
0 0 0 0 0 0 0 0 0 0 0 0 0 0 0 0 0 0 0 0 0 0 0 0 0 0 0 0 0 0 0 0 0 0 0 0 0 0 0 0 0 0 0
0 0 0 0 0 0 0 0 0 0 0 0 0 0 0 0 0 0 0 0 0 0 0 0 0 0 0 0 0 0 0 0 0 0 0 0 0 0 0 0 0 0 0
0 0 0 0 0 0 0 0 0 0 0 0 0 0 0 0 0 0 0 0 0 0 0 0 0 0 0 0 0 0 0 0 0 0 0 0 0 0 0 0 0 0 0
0 0 0 0 0 0 0 0 0 0 0 0 0 0 0 0 0 0 0 0 0 0 0 0 0 0 0 0 0 0 0 0 0 0 0 0 0 0 0 0 0 0 0
0 0 0 0 0 0 0 0 0 0 0 0 0 0 0 0 0 0 0 0 0 0 0 0 0 0 0 0 0 0 0 0 0 0 0 0 0 0 0 0 0 0 0
Wind_Speed
1 2 4 7 7 7 8 8 8 9 9 9 9 9 9 8 8 8 7 7 8 8 9 10 10 10 10 10 11 11 12 12 12 12 11 11 12 13 13 13 11 8 14
2 3 4 7 8 8 8 8 8 8 8 9 9 9 8 8 8 7 7 7 7 8 9 9 9 9 10 10 10 11 11 11 11 11 10 8 9 12 12 12 11 8 13
3 3 4 7 8 8 8 7 8 8 8 9 9 8 8 8 7 7 6 7 7 8 8 8 8 9 9 10 10 10 11 11 11 10 9 5 6 11 12 11 11 12 12
3 3 4 7 7 8 8 7 7 7 7 8 8 8 7 7 7 7 6 7 7 8 8 8 8 8 8 9 9 10 10 10 10 9 5 3 3 9 11 11 11 12 12
3 2 3 7 7 7 7 7 7 6 7 7 7 7 6 6 7 7 7 7 6 7 7 7 8 8 8 8 8 9 9 9 9 7 4 3 3 8 10 10 11 11 11
3 2 2 6 7 7 7 7 6 6 6 6 6 6 6 6 6 6 6 7 7 7 7 7 7 7 8 8 7 8 9 9 7 4 3 3 2 7 9 10 10 10 11
3 3 2 5 6 6 6 6 6 6 6 6 6 6 6 6 5 6 6 6 6 7 7 6 7 7 7 7 7 7 8 8 5 4 3 2 3 7 9 10 10 10 10
4 4 3 4 5 5 5 5 6 5 5 5 5 5 5 5 5 5 5 5 5 6 6 6 6 7 7 7 7 7 7 6 5 3 2 2 4 6 8 8 9 9 9
5 4 4 4 4 4 4 4 5 5 4 5 5 5 5 5 5 5 5 5 5 5 5 6 6 6 7 7 8 7 7 6 3 2 2 1 4 6 7 8 8 8 8
5 4 4 4 4 3 2 3 4 4 5 5 5 5 5 5 5 5 4 4 4 5 5 5 5 6 6 7 7 7 6 5 2 2 1 2 4 6 7 7 8 8 8
4 4 3 4 4 3 2 3 3 4 4 4 4 4 4 3 2 3 4 5 4 4 4 5 5 6 6 5 6 6 5 2 2 1 0 2 4 5 6 6 7 7 7
4 3 3 3 3 3 3 2 2 2 2 2 2 2 2 2 2 3 3 4 4 5 4 4 5 5 4 2 3 4 2 2 1 0 0 2 4 5 5 6 6 7 7
3 3 3 2 2 2 2 2 2 1 2 2 2 2 2 2 2 2 1 2 2 3 2 3 3 2 2 2 2 2 2 1 1 0 0 1 3 4 5 5 6 7 7
4 4 3 2 2 2 2 1 1 1 1 1 1 2 2 1 1 1 1 1 1 1 1 2 1 2 2 2 2 2 2 1 1 1 1 0 1 3 4 5 6 7 7
5 5 4 3 2 1 1 1 1 1 1 1 1 1 1 1 1 1 0 1 1 1 1 1 1 2 2 2 2 2 1 1 1 0 1 1 1 2 4 4 5 6 6
6 6 5 3 2 1 1 1 1 1 1 1 1 1 1 1 1 1 0 0 0 0 1 1 1 1 1 1 1 1 1 0 1 1 1 1 1 1 2 4 4 5 6
6 6 6 4 3 2 1 1 0 1 1 0 0 1 1 1 1 1 1 0 0 0 1 1 1 1 1 1 1 1 0 0 0 0 1 0 1 1 1 3 4 5 5
6 6 6 5 4 3 2 1 1 0 0 0 0 0 0 0 1 1 1 1 0 0 1 1 1 1 1 1 1 0 0 0 0 0 0 0 0 1 1 1 2 3 5
6 6 7 7 5 4 3 1 1 0 0 0 0 0 1 0 0 1 1 1 1 1 1 1 1 1 1 1 0 0 0 0 1 0 0 0 0 0 0 1 0 1 3
6 6 7 7 6 5 3 2 1 1 1 1 0 1 1 1 1 1 1 1 1 1 1 1 1 1 1 1 1 1 1 1 1 1 1 0 0 0 0 0 0 1 1
8 8 8 8 7 5 3 3 2 2 1 1 1 1 1 1 1 1 1 1 1 2 2 2 2 1 1 1 1 1 1 1 0 1 1 0 0 0 1 1 0 0 0
8 8 8 8 7 5 4 3 2 3 2 2 1 1 2 2 2 2 2 2 2 2 2 2 2 1 1 1 1 1 0 1 1 1 1 1 1 1 0 1 1 0 0
8 8 7 7 7 6 6 4 3 3 2 1 2 2 2 2 2 2 2 2 2 3 3 3 3 3 2 1 1 2 2 2 1 1 1 1 1 1 1 0 1 1 1
8 7 7 7 7 6 5 4 4 3 3 3 3 3 3 2 2 2 2 2 3 3 3 4 4 3 3 3 1 1 1 2 2 1 1 1 1 1 1 1 1 1 1
7 6 6 7 7 7 5 5 4 4 4 4 3 3 3 2 2 2 2 2 3 3 3 4 3 3 3 4 3 1 1 0 1 2 2 1 1 1 1 1 1 1 1
7 6 7 7 7 7 6 5 4 5 5 5 4 4 3 2 2 3 3 3 3 3 3 4 4 5 4 4 3 2 3 2 2 2 2 2 2 2 1 1 2 2 1
Wind_Direction
207 208 171 131 122 114 110 105 99 94 91 92 98 101 103 102 101 101 100 98 96 99 96 95 96 94 93 91 92 92 94 94 92 90 90 94 95 96 95 92 88 84 89
167 180 155 131 124 117 111 105 98 92 89 90 92 94 97 98 101 102 100 98 99 99 97 95 96 95 95 95 94 93 93 92 91 86 81 86 95 100 100 97 95 95 94
133 151 139 127 124 120 113 107 100 95 91 89 89 88 89 90 95 98 97 93 95 96 96 96 96 95 95 97 98 96 94 94 92 85 78 74 93 104 103 100 99 98 97
130 129 125 123 122 120 114 109 104 99 95 91 87 85 86 86 86 90 91 92 92 91 90 93 95 97 99 101 102 101 100 98 94 85 72 68 86 106 107 106 104 102 98
108 106 123 125 123 119 116 114 110 104 98 94 91 88 88 88 86 83 83 85 87 89 89 92 93 96 98 103 104 105 106 101 94 83 75 70 74 107 109 107 106 104 100
73 68 113 121 124 120 118 115 113 110 103 98 95 92 91 90 90 83 76 77 78 86 93 95 95 98 96 99 105 107 108 102 93 83 77 74 83 110 113 112 111 108 106
67 49 85 105 117 120 120 118 116 111 106 102 99 97 93 91 89 83 79 76 77 84 92 96 97 100 100 97 99 104 104 101 96 87 79 83 108 114 114 114 114 112 112
72 54 52 81 96 107 112 117 115 110 105 100 94 90 88 87 86 82 81 78 80 84 90 95 98 99 98 95 93 94 98 100 101 98 90 95 120 123 120 119 117 115 114
52 51 48 51 63 75 87 100 104 103 99 92 85 80 76 72 74 74 73 75 81 86 88 92 94 96 93 91 91 88 89 93 98 97 105 109 127 131 126 121 121 118 116
44 42 43 42 47 52 56 72 79 88 88 83 76 70 70 69 67 63 60 63 75 80 85 88 92 93 88 86 88 85 82 87 93 93 92 121 131 136 133 129 127 127 125
26 27 32 35 37 39 45 50 58 63 69 73 70 66 67 69 70 64 54 52 54 66 77 86 88 88 82 79 81 77 73 74 98 95 119 127 133 138 139 137 134 131 131
357 358 17 29 32 36 39 41 43 48 56 64 66 67 64 64 57 59 50 49 52 57 64 78 83 82 71 66 68 67 60 61 79 92 158 148 151 145 145 140 135 132 127
340 346 356 14 32 47 39 44 33 36 38 54 65 67 69 70 62 55 58 46 43 50 58 64 64 65 73 74 69 63 58 59 42 351 60 168 167 159 153 145 144 141 133
348 339 344 353 22 42 50 55 51 45 43 37 49 76 88 83 68 58 59 36 38 35 59 65 68 73 80 81 81 72 59 54 38 357 355 57 175 170 166 162 151 151 144
345 338 333 343 350 22 49 30 42 32 40 36 26 61 91 107 112 90 63 58 44 47 68 80 81 79 89 85 81 81 69 47 35 8 332 340 237 178 171 171 163 161 155
341 335 334 334 329 360 30 16 16 15 17 40 22 21 80 112 132 137 116 87 54 81 94 105 116 106 109 107 89 77 69 53 25 350 324 324 294 230 189 184 177 173 165
339 339 340 333 342 336 339 338 14 353 8 30 345 344 46 99 140 142 153 159 241 199 117 98 90 89 96 105 96 65 45 29 27 334 321 326 321 299 227 196 189 182 172
350 350 346 344 344 333 319 316 325 317 352 346 310 301 342 72 122 148 179 197 202 149 131 127 121 105 88 102 106 39 4 355 1 332 19 3 17 345 314 230 194 191 183
355 355 353 352 346 334 327 319 310 298 307 306 309 294 294 255 190 178 202 213 175 145 148 155 121 136 132 111 115 67 22 339 313 321 51 319 233 205 284 338 290 224 195
359 2 1 359 354 345 342 339 329 328 303 310 297 294 292 264 251 210 207 205 176 160 168 155 151 130 156 159 87 41 5 333 335 303 265 266 239 196 155 94 42 327 237
7 8 4 1 356 358 354 343 317 290 275 279 289 297 283 270 253 229 224 203 195 189 195 178 153 146 167 153 108 45 353 346 350 306 300 318 29 38 79 101 108 92 323
4 2 359 357 353 353 346 322 307 296 268 254 267 283 278 271 254 237 213 212 207 197 198 192 166 157 202 180 148 128 5 339 336 325 291 212 193 84 62 83 100 132 154
2 357 351 347 346 347 348 344 343 346 331 323 311 297 285 270 261 261 235 217 207 197 203 205 195 184 193 237 210 172 168 204 276 298 270 241 210 174 210 170 142 173 167
351 348 347 345 347 348 353 357 356 342 320 306 298 285 282 265 259 263 253 230 214 210 207 210 209 199 182 201 245 258 203 167 177 235 298 290 267 229 235 213 200 213 195
346 347 344 344 349 350 350 348 347 335 317 315 315 293 283 270 255 254 251 239 230 223 213 212 212 208 199 198 199 203 186 356 216 182 230 257 294 274 248 243 231 220 218
350 353 352 351 348 347 346 341 339 329 324 320 317 305 290 277 264 256 256 240 236 230 216 214 215 216 215 208 205 200 187 183 194 189 206 228 244 267 266 244 228 224 221